OBJECT B, 65946

Orbit data source: Space-Track

You're viewing an Uncataloged Satellite

Recently launched and/or uncataloged satellites may have evolving metadata. Metadata may include but not limited to: Owner, Maufacturer, Bus, Motor, and Mission.

OBJECT B, 65946 is a satellite owned by CASC (CN) in LEO that was launched on Mon, 13 Oct 2025 UTC launched from the Jiuquan Satellite Launch Center, China (JSC). Unknown objects in Earth's orbit typically refer to objects detected orbiting the Earth but have not yet been identified or cataloged. These objects could be anything from previously untracked satellites, spent rocket stages, debris from satellite collisions, or even natural meteoroids temporarily captured by Earth's gravity.

Loading next visibility...
Identifier
65946, 2025-227B
Orbit
LEO
Country
Flag of CNCN / PRC
Related business
Manufacturer
BWYIC
Mission
Spacecraft
Bus & Motor
CZ-2 STAGE 2, Unknown motor
Mass
4,006 kg wet, 4,006 kg dry
Launch date (UTC)
2025-10-13 (5 days ago)
Launch vehicle
Unknown
Launch site
Jiuquan Satellite Launch Center, China (JSC)
Object type
Unknown
Shape & HBR
Unknown
Radar Cross Section
RCS unknown

Expand to show TLE details & history
Last TLE update: 6 hours ago

TLE from 6 hours ago
0 OBJECT B
1 65946U 25227B   25290.85095132  .00014143  00000-0  52827-3 0  9999
2 65946  80.1526  96.2651 0021657  20.6023 339.6076 15.27045057   681
Epoch: 2025-10-17T20:25Z
TLE epoch observation values (Epoch: 2025-10-17T20:25:22.194Z)
Latitude
0.00001°
Longitude
123.33223°
Altitude
473.74 km
Speed
7.637 km/s
True Right ascension
06h 25m 03s
True Declination
0° 00' 00"
Sunlit
Object was in daylight at epoch
Visualization orbit readout
Latitude
Unknown
Longitude
Unknown
Altitude
Unknown
Speed
Unknown
Apparent Right ascension
Unknown
Apparent Declination
Unknown
Sunlit
N/A
Visualization observer readout
Local Sidereal Time
21:26:37
Azimuth
Unknown
Elevation
Unknown
Doppler factor
Unknown
Orbital elements
Apogee altitude
496.586 km
Perigee altitude
466.873 km
Semi-major axis
6,859.866 km
Eccentricity
0.00217
Inclination
80.1526°
RAAN
96.2651°
Arg. of periapsis
20.6023°
True anomaly
339.52091°
Mean anomaly
339.6076°
Eccentric anomaly
339.56427°
Mean motion
3.82006 °/min
Orbital period
94.24 mins
BSTAR
0.00052827
Loading maneuver chart data...
Computing Atmospheric mass density...
Loading historical data...
Loading historical data...
Loading historical data...
Loading historical data...
Loading historical data...
Loading historical data...
Loading historical data...
Other satellites on launch #227 in the year 2025 (2025-10-13 UTC)

Documentation

Showing up to 5 results
|